Weather History for State College, PA

Change the Weather History Date:

Tuesday, May 28, 2013

  Actual Average Record
Temperature  
Mean Temperature 60 °F -  
Max Temperature 69 °F 71 °F 89 °F (1931)
Min Temperature 51 °F 50 °F 36 °F (1927)
Degree Days  
Heating Degree Days 5    
Growing Degree Days 10 (Base 50)    
Moisture  
Dew Point 54 °F    
Average Humidity 87    
Maximum Humidity 100    
Minimum Humidity 60    
Precipitation  
Precipitation 0.01 in - - ()
Sea Level Pressure  
Sea Level Pressure 30.13 in    
Wind  
Wind Speed 3 mph (SW)    
Max Wind Speed 10 mph    
Max Gust Speed -    
Visibility 8 miles    
Events Rain    
Averages and records for this station are not official NWS values.
T = Trace of Precipitation, MM = Missing Value Source: NWS Daily Summary

Daily Weather History Graph

Daily Weather History Graph

Search for Another Location

Airport:

Trip Planner

Search our weather history database for the weather conditions in past years. The results will help you decide how hot, cold, wet, or windy it might be!

Date:

Astronomy

May. 28, 2013 Rise Set
Actual Time 5:43 AM EDT 8:33 PM EDT
Civil Twilight 5:11 AM EDT 9:06 PM EDT
Nautical Twilight 4:30 AM EDT 9:47 PM EDT
Astronomical Twilight 3:43 AM EDT 10:34 PM EDT
Moon 11:55 PM EDT (5/28) 9:30 AM EDT (5/28)
Length of Visible Light 15h 55m
Length of Day
14h 50m
Waning Gibbous, 83% of the Moon is Illuminated
May 28
Waning Gibbous
May 31
Last Quarter
Jun 8
New
Jun 16
First Quarter
Jun 23
Full

Hourly Weather History & Observations

Time (EDT) Temp. Dew Point Humidity Pressure Visibility Wind Dir Wind Speed Gust Speed Precip Events Conditions
12:15 AM 58.1 °F 44.1 °F 60% 30.17 in 10.0 mi Calm Calm - N/A   Overcast
12:35 AM 57.4 °F 45.9 °F 65% 30.18 in 10.0 mi Calm Calm - N/A   Overcast
12:55 AM 56.8 °F 44.6 °F 64% 30.19 in 10.0 mi WSW 5.8 mph - N/A   Overcast
1:15 AM 57.2 °F 45.1 °F 64% 30.19 in 10.0 mi West 3.5 mph - N/A   Overcast
1:35 AM 57.0 °F 45.7 °F 66% 30.19 in 10.0 mi Calm Calm - N/A   Light Drizzle
1:55 AM 56.3 °F 46.6 °F 70% 30.19 in 10.0 mi WSW 6.9 mph - N/A   Light Drizzle
2:15 AM 55.2 °F 47.1 °F 74% 30.17 in 10.0 mi NE 3.5 mph - N/A Rain Light Rain
2:35 AM 54.9 °F 48.4 °F 79% 30.17 in 10.0 mi Calm Calm - N/A   Overcast
2:55 AM 54.7 °F 48.9 °F 81% 30.17 in 10.0 mi Calm Calm - N/A   Light Drizzle
3:15 AM 54.5 °F 48.9 °F 81% 30.17 in 10.0 mi Calm Calm - N/A Rain Rain
3:35 AM 53.8 °F 50.2 °F 88% 30.17 in 10.0 mi West 4.6 mph - N/A Rain Rain
3:55 AM 53.4 °F 49.6 °F 87% 30.15 in 10.0 mi Calm Calm - N/A Rain Light Rain
4:15 AM 52.9 °F 50.9 °F 93% 30.15 in 10.0 mi Calm Calm - N/A Rain Rain
4:35 AM 53.1 °F 50.9 °F 92% 30.17 in 10.0 mi WSW 4.6 mph - N/A Rain Light Rain
4:55 AM 53.1 °F 50.9 °F 92% 30.16 in 10.0 mi Calm Calm - N/A Rain Light Rain
5:15 AM 52.3 °F 51.1 °F 95% 30.15 in 10.0 mi Calm Calm - N/A   Drizzle
5:35 AM 52.9 °F 50.9 °F 93% 30.15 in 10.0 mi NNW 3.5 mph - 0.01 in   Light Drizzle
5:53 AM 51.8 °F 50.0 °F 94% 30.14 in 5.0 mi Calm Calm - N/A Rain Light Rain
6:53 AM 51.8 °F 51.8 °F 100% 30.15 in 4.0 mi Variable 3.5 mph - N/A Rain Light Rain
7:53 AM 51.8 °F 51.8 °F 100% 30.18 in 5.0 mi West 8.1 mph - N/A Rain Light Rain
8:53 AM 53.6 °F 51.8 °F 94% 30.16 in 3.0 mi SW 5.8 mph - N/A Rain Rain
9:53 AM 53.6 °F 51.8 °F 94% 30.12 in 5.0 mi SW 5.8 mph - N/A   Overcast
10:53 AM 55.4 °F 53.6 °F 94% 30.13 in 7.0 mi SW 6.9 mph - N/A   Overcast
11:53 AM 57.2 °F 53.6 °F 88% 30.13 in 7.0 mi SW 8.1 mph - N/A   Overcast
12:53 PM 59.0 °F 55.4 °F 88% 30.13 in 7.0 mi SSW 10.4 mph - N/A   Overcast
1:53 PM 59.0 °F 57.2 °F 94% 30.12 in 7.0 mi SW 4.6 mph - N/A Rain Light Rain
2:17 PM 60.8 °F 57.2 °F 88% 30.12 in 7.0 mi SW 6.9 mph - N/A   Overcast
2:53 PM 62.6 °F 59.0 °F 88% 30.11 in 7.0 mi WSW 8.1 mph - N/A   Overcast
3:53 PM 64.4 °F 60.8 °F 88% 30.10 in 10.0 mi SW 3.5 mph - N/A   Mostly Cloudy
4:53 PM 64.4 °F 59.0 °F 83% 30.10 in 8.0 mi Calm Calm - N/A   Mostly Cloudy
5:58 PM 66.2 °F 60.8 °F 83% 30.09 in 8.0 mi South 4.6 mph - N/A   Mostly Cloudy
6:53 PM 69.8 °F 62.6 °F 78% 30.07 in 10.0 mi SSW 4.6 mph - N/A   Mostly Cloudy
7:53 PM 66.2 °F 60.8 °F 83% 30.06 in 10.0 mi SW 4.6 mph - N/A   Scattered Clouds
8:58 PM 64.4 °F 60.8 °F 88% 30.07 in 10.0 mi Calm Calm - N/A   Scattered Clouds
9:15 PM 63.5 °F 61.0 °F 91% 30.07 in 10.0 mi SSW 3.5 mph - N/A   Scattered Clouds
9:35 PM 63.7 °F 60.8 °F 90% 30.07 in 10.0 mi WSW 5.8 mph - N/A   Clear
9:55 PM 62.8 °F 61.0 °F 94% 30.08 in 10.0 mi Calm Calm - N/A   Clear
10:15 PM 63.1 °F 61.7 °F 95% 30.07 in 10.0 mi Calm Calm - N/A   Clear
10:35 PM 63.0 °F 61.2 °F 94% 30.08 in 10.0 mi West 4.6 mph - N/A   Clear
10:55 PM 61.2 °F 60.1 °F 96% 30.07 in 5.0 mi Calm Calm - N/A   Clear
11:15 PM 61.0 °F 60.3 °F 97% 30.08 in 7.0 mi Calm Calm - N/A   Scattered Clouds
11:35 PM 61.2 °F 60.4 °F 97% 30.07 in 7.0 mi Calm Calm - N/A   Mostly Cloudy
11:55 PM 61.0 °F 60.4 °F 98% 30.08 in 7.0 mi Calm Calm - N/A   Scattered Clouds